OPS 4682 DEB, 29061

Orbit data source: Space-Track

OPS 4682 DEB, 29061 is space debris in LEO originally from a launch on Sat, 03 Apr 1965 UTC launched from the Air Force Western Test Range (AFWTR). Debris objects in space refer to the collection of defunct objects orbiting the Earth. Examples of debris include non-operational satellites, rocket bodies, and fragments generated from explosions, collisions, or faulty payload assembly.

Loading next visibility...
Identifier
29061, 1965-027BL
Orbit
LEO
Country
Flag of USUS
Related business
Manufacturer
Unknown
Mission
Spacecraft
Bus & Motor
Unknown
Mass
Unknown
Launch date (UTC)
1965-04-03 (61 years ago)
Launch vehicle
Unknown
Launch site
Air Force Western Test Range (AFWTR)
Object type
Payload
Rocket body
Debris
Shape & HBR
Unknown shape, 0.1 m
Radar Cross Section
Small (<0.1 m²)

Expand to show TLE details & history
Last TLE update: 1 day ago

TLE from 1 day ago
0 OPS 4682 DEB
1 29061U 65027BL  25292.22506207  .00000859  00000-0  30492-2 0  9994
2 29061  90.2526  12.1025 0033393 129.8449 287.7261 12.94612879197226
Epoch: 2025-10-19T05:24Z
TLE epoch observation values (Epoch: 2025-10-19T05:24:05.362Z)
Latitude
57.29512°
Longitude
-97.25605°
Altitude
1,285.229 km
Speed
7.222 km/s
True Right ascension
00h 46m 50s
True Declination
57° 08' 58"
Sunlit
Object was in full shadow at epoch
Visualization orbit readout
Latitude
Unknown
Longitude
Unknown
Altitude
Unknown
Speed
Unknown
Apparent Right ascension
Unknown
Apparent Declination
Unknown
Sunlit
N/A
Visualization observer readout
Local Sidereal Time
08:28:37
Azimuth
Unknown
Elevation
Unknown
Doppler factor
Unknown
Orbital elements
Apogee altitude
1,305.976 km
Perigee altitude
1,254.828 km
Semi-major axis
7,658.539 km
Eccentricity
0.00334
Inclination
90.2526°
RAAN
12.1025°
Arg. of periapsis
129.8449°
True anomaly
287.36115°
Mean anomaly
287.7261°
Eccentric anomaly
287.54367°
Mean motion
3.23835 °/min
Orbital period
111.17 mins
BSTAR
0.0030492
Loading maneuver chart data...
Computing Atmospheric mass density...
Loading historical data...
Loading historical data...
Loading historical data...
Loading historical data...
Loading historical data...
Loading historical data...
Loading historical data...

Documentation

Showing up to 5 results
|